Location: Oshawa
(43.9000°N, 78.8670°W)
Time: 11:02:58
(UTC-04:00)

Cosmos 1805 Rocket - Visible Passes

Search period start: 23 July 2016 00:00
Search period end: 02 August 2016 00:00
Orbit: 605 x 631 km, 82.5° (Epoch: 22 July)

Date Brightness Start Highest point End Pass type
(mag) Time Alt. Az. Time Alt. Az. Time Alt. Az.
24 Jul 6.6 04:59:46 10° NNE 05:02:40 17° ENE 05:05:34 10° ESE visible
25 Jul 5.8 05:16:11 10° NNE 05:20:01 30° ENE 05:23:51 10° SE visible
27 Jul 7.1 04:15:37 10° ENE 04:15:57 10° ENE 04:16:17 10° ENE visible
28 Jul 6.4 04:30:25 10° NNE 04:33:24 18° ENE 04:36:23 10° ESE visible
29 Jul 5.6 04:46:52 10° NNE 04:50:45 31° ENE 04:54:37 10° SE visible
30 Jul 4.3 05:03:41 10° N 05:07:59 56° E 05:12:17 10° SSE visible
31 Jul 6.8 03:45:49 10° NE 03:46:41 10° ENE 03:47:33 10° ENE visible
31 Jul 3.5 05:20:46 10° N 05:25:08 78° W 05:29:30 10° S visible
01 Aug 6.3 04:01:04 10° NNE 04:04:08 18° ENE 04:07:12 10° ESE visible
